LA_CORUNA/ALVEDRO current weather conditions

sailwx.info

Wind from 160 at 5 knots

Air temperature 2.0° C
Visibility: greater than 5.4 NM
Dewpoint 1.0° C

Last reported at 2017-Dec-18 02:00 UTC.
Time now 2017-Dec-18 03:25 UTC

Location: N 43°18' W 008°23'.
View on Google Maps.

See reports from other nearby stations

  
Tides and Currents Weather Stations Pressure Air Temp Water Temp Dewpoint Dewpoint Depression Visibility Wind Speed Wind Dir Waves Ship Positions
date/time (UTC)wind fromknots sea level pressurealtimeterstation pressurevisibilityair tempwater tempwave heightnotes
2017-Dec-18 03:00 170 5 5.4 2.0
2017-Dec-18 02:30 170 5 5.4 2.0
2017-Dec-18 02:00 160 5 5.4 2.0
2017-Dec-18 01:30 170 4 5.4 2.0
2017-Dec-18 01:00 170 4 5.4 2.0
2017-Dec-18 00:30 180 5 5.4 2.0
2017-Dec-18 00:00 160 5 5.4 2.0
2017-Dec-17 23:30 170 5 5.4 3.0
2017-Dec-17 23:00 170 5 5.4 3.0
2017-Dec-17 22:30 190 2 5.4 3.0
2017-Dec-17 22:00 180 5 5.4 4.0
2017-Dec-17 21:30 190 1 5.4 4.0
2017-Dec-17 21:00 170 2 5.4 4.0
2017-Dec-17 20:30 190 5 5.4 5.0
2017-Dec-17 20:00 170 0 5.4 5.0
2017-Dec-17 19:30 190 4 5.4 5.0
2017-Dec-17 19:00 190 5 5.4 6.0
2017-Dec-17 18:30 210 2 5.4 7.0
2017-Dec-17 18:00 200 1 5.4 6.0
2017-Dec-17 17:30 5.4 8.0
2017-Dec-17 17:00 5.4 9.0
2017-Dec-17 16:30 320 0 5.410.0
2017-Dec-17 16:00 020 0 5.412.0
2017-Dec-17 15:30 5.412.0
2017-Dec-17 15:00 5.412.0
2017-Dec-17 14:30 5.412.0
2017-Dec-17 14:00 5.412.0
2017-Dec-17 13:30 5.412.0
2017-Dec-17 13:00 5.412.0
2017-Dec-17 12:30 5.411.0
2017-Dec-17 12:00 5.410.0
2017-Dec-17 11:30 5.4 8.0
2017-Dec-17 11:00 5.4 6.0
2017-Dec-17 10:30 170 2 5.4 4.0
2017-Dec-17 10:00 170 6 5.4 2.0
2017-Dec-17 09:30 170 6 5.4 1.0 Fog in the vicinity.
2017-Dec-17 09:13 170 5 4.9 1.0 Patches of fog.
2017-Dec-17 09:00 180 5 2.2 1.0 Patches of fog.
2017-Dec-17 08:30 170 6 0.2-0.0 Fog.
2017-Dec-17 08:09 180 4 2.2-0.0 Patches of fog.
2017-Dec-17 08:00 180 4 4.9-0.0 Fog in the vicinity.
2017-Dec-17 07:30 170 4 4.9 1.0 Fog in the vicinity.
2017-Dec-17 07:00 180 5 3.2 1.0 Patches of fog.
2017-Dec-17 06:30 180 4 0.2 1.0 Fog.
2017-Dec-17 06:00 170 2 0.2 1.0 Fog.
2017-Dec-17 05:30 180 6 3.8 2.0 Patches of fog.
2017-Dec-17 05:14 170 6 0.4 2.0 Patches of fog.
2017-Dec-17 05:00 180 5 3.8 2.0 Patches of fog.
2017-Dec-17 04:30 170 4 5.4 2.0
2017-Dec-17 04:00 170 4 5.4 3.0
2017-Dec-17 03:30 180 2 0.5 2.0 Fog.
2017-Dec-17 03:00 170 4 4.9 2.0
2017-Dec-17 02:30 170 5 4.3 2.0
2017-Dec-17 02:00 170 6 3.8 3.0
2017-Dec-17 01:30 170 5 4.3 3.0
2017-Dec-17 01:00 170 4 3.8 3.0
2017-Dec-17 00:30 170 5 0.5 2.0 Mist.
2017-Dec-17 00:00 180 4 0.1 2.0 Fog.
2017-Dec-16 23:30 170 2 0.1 3.0 Fog.
2017-Dec-16 23:00 180 5 0.2 3.0 Fog.
2017-Dec-16 22:30 180 2 0.3 3.0 Fog.
2017-Dec-16 22:00 170 4 0.1 4.0 Fog.
2017-Dec-16 21:30 170 2 0.2 4.0 Partial fog.
2017-Dec-16 21:10 180 4 4.9 5.0 Shallow fog.
2017-Dec-16 21:00 180 2 4.9 5.0
2017-Dec-16 20:30 180 1 4.9 6.0
2017-Dec-16 20:00 180 1 4.9 6.0
2017-Dec-16 19:30 200 1 5.4 7.0
2017-Dec-16 19:00 5.4 7.0
2017-Dec-16 18:30 5.4 8.0
2017-Dec-16 18:00 5.4 9.0
2017-Dec-16 17:30 5.4 8.0
2017-Dec-16 17:00 5.4 9.0
2017-Dec-16 16:30 5.410.0
2017-Dec-16 16:00 5.411.0
2017-Dec-16 15:30 5.411.0
2017-Dec-16 15:00 010 2 5.411.0
2017-Dec-16 14:30 5.411.0
2017-Dec-16 14:00 5.411.0
2017-Dec-16 13:30 5.411.0
2017-Dec-16 13:00 5.411.0
2017-Dec-16 12:30 5.411.0
2017-Dec-16 12:00 5.411.0 Fog in the vicinity.
2017-Dec-16 11:30 4.9 9.0 Fog in the vicinity.
2017-Dec-16 11:00 4.9 8.0 Patches of fog.
2017-Dec-16 10:30 3.8 7.0 Light rain. Fog in the vicinity.
2017-Dec-16 10:00 180 2 3.8 6.0 Patches of fog.
2017-Dec-16 09:30 170 5 3.8 4.0 Patches of fog.
2017-Dec-16 09:00 200 2 3.8 4.0 Light rain. Patches of fog.
2017-Dec-16 08:30 4.9 4.0
2017-Dec-16 08:00 190 2 2.7 3.0 Mist. Patches of fog.
2017-Dec-16 07:30 2.7 4.0 Light rain. Patches of fog.
2017-Dec-16 07:00 4.9 4.0
2017-Dec-16 06:30 180 5 0.3 3.0 Fog.
2017-Dec-16 06:05 170 4 0.2 4.0 Fog.
2017-Dec-16 06:00 160 2 2.7 4.0 Mist. Patches of fog.
2017-Dec-16 05:30 180 4 5.4 4.0
2017-Dec-16 05:00 200 2 4.3 5.0
2017-Dec-16 04:30 180 4 5.4 5.0
2017-Dec-16 04:00 200 2 5.4 5.0
2017-Dec-16 03:30 180 2 1.9 4.0 Mist.
2017-Dec-16 03:00 200 2 4.3 4.0